IRIDIUM 33 DEB, 35484

Orbit data source: Space-Track

IRIDIUM 33 DEB, 35484 is space debris in LEO originally from a launch on Sun, 14 Sep 1997 UTC launched from the Tyuratam Missile And Space Complex (TTMTR). The debris from Iridium 33, an American commercial communications satellite, has been tracked extensively since its accidental collision with the defunct Russian satellite Cosmos 2251 in 2009. This event, occurring at high speed in low Earth orbit (LEO), generated thousands of pieces of space debris, significantly increasing the risk of further collisions. The Iridium 33 debris cloud has impacted space traffic management and orbital debris mitigation strategies, making it a subject of ongoing study in space situational awareness.

Loading next visibility...
Identifier
35484, 1997-051QE
Orbit
LEO
Country
Flag of USUS
Related business
Manufacturer
Unknown
Mission
Spacecraft
Bus & Motor
Unknown
Mass
Unknown
Launch date (UTC)
1997-09-14 (28 years ago)
Launch vehicle
Unknown
Launch site
Tyuratam Missile And Space Complex (TTMTR)
Object type
Payload
Rocket body
Debris
Shape & HBR
Unknown shape, 0.1 m
Radar Cross Section
Small (<0.1 m²)

Expand to show TLE details & history
Last TLE update: 2 weeks ago

TLE from 2 weeks ago
0 IRIDIUM 33 DEB
1 35484U 97051QE  26050.19184175  .00037506  00000-0  25740-2 0  9996
2 35484  86.3587 320.5585 0011587 239.1626 120.8470 15.05777687630433
Epoch: 2026-02-19T04:36Z
TLE epoch observation values (Epoch: 2026-02-19T04:36:15.127Z)
Latitude
0.00001°
Longitude
102.3488°
Altitude
556.394 km
Speed
7.581 km/s
True Right ascension
21h 22m 14s
True Declination
0° 00' 00"
Sunlit
Object was in daylight at epoch
Visualization orbit readout
Latitude
Unknown
Longitude
Unknown
Altitude
Unknown
Speed
Unknown
Apparent Right ascension
Unknown
Apparent Declination
Unknown
Sunlit
N/A
Visualization observer readout
Local Sidereal Time
06:39:58
Azimuth
Unknown
Elevation
Unknown
Doppler factor
Unknown
Orbital elements
Apogee altitude
554.007 km
Perigee altitude
537.961 km
Semi-major axis
6,924.121 km
Eccentricity
0.00116
Inclination
86.3587°
RAAN
320.5585°
Arg. of periapsis
239.1626°
True anomaly
120.96091°
Mean anomaly
120.847°
Eccentric anomaly
120.90396°
Mean motion
3.767 °/min
Orbital period
95.57 mins
BSTAR
0.002574
Loading maneuver chart data...
Computing Atmospheric mass density...
Loading historical data...
Loading historical data...
Loading historical data...
Loading historical data...
Loading historical data...
Loading historical data...
Loading historical data...

Documentation

Showing up to 5 results
|